Time,TemperatureF,DewpointF,PressureIn,WindDirection,WindDirectionDegrees,WindSpeedMPH,WindSpeedGustMPH,Humidity,HourlyPrecipIn,Conditions,Clouds,dailyrainin,SoftwareType,DateUTC
2013-05-29 00:00:00,78.8,75.9,29.83,East,92,15.8,31.4,91,0.00,,,0.00,WeatherDisplay:10.37,2013-05-29 05:00:00,
2013-05-29 00:05:00,78.9,76.0,29.83,ESE,112,14.8,29.9,91,0.00,,,0.00,WeatherDisplay:10.37,2013-05-29 05:05:00,
2013-05-29 00:10:00,79.0,76.5,29.84,ESE,123,14.7,28.8,92,0.00,,,0.00,WeatherDisplay:10.37,2013-05-29 05:10:00,
2013-05-29 00:15:00,78.9,76.0,29.84,SE,141,17.0,28.8,91,0.00,,,0.00,WeatherDisplay:10.37,2013-05-29 05:15:00,
2013-05-29 00:20:00,79.0,76.5,29.84,ESE,114,13.3,19.6,92,0.00,,,0.00,WeatherDisplay:10.37,2013-05-29 05:20:00,
2013-05-29 00:25:00,78.9,76.4,29.84,ESE,123,14.4,26.5,92,0.00,,,0.00,WeatherDisplay:10.37,2013-05-29 05:25:00,
2013-05-29 00:30:00,78.9,76.0,29.83,ESE,117,18.0,34.5,91,0.00,,,0.00,WeatherDisplay:10.37,2013-05-29 05:30:00,
2013-05-29 00:35:00,78.9,76.0,29.83,ESE,121,17.0,27.6,91,0.00,,,0.00,WeatherDisplay:10.37,2013-05-29 05:35:00,
2013-05-29 00:40:00,78.9,76.0,29.84,SE,134,14.7,23.0,91,0.00,,,0.00,WeatherDisplay:10.37,2013-05-29 05:40:00,
2013-05-29 00:45:00,78.9,76.0,29.83,SE,127,16.3,25.3,91,0.00,,,0.00,WeatherDisplay:10.37,2013-05-29 05:45:00,
2013-05-29 00:50:00,79.0,76.5,29.83,ESE,119,15.3,24.2,92,0.00,,,0.00,WeatherDisplay:10.37,2013-05-29 05:50:00,
2013-05-29 00:55:00,78.9,76.4,29.83,ESE,119,15.8,31.1,92,0.00,CLR,,0.00,WeatherDisplay:10.37,2013-05-29 05:55:00,
2013-05-29 01:00:00,79.0,76.5,29.83,ESE,120,14.3,22.2,92,0.00,,,0.00,WeatherDisplay:10.37,2013-05-29 06:00:00,
2013-05-29 01:05:00,78.9,76.4,29.83,SSE,161,15.3,24.2,92,0.00,,,0.00,WeatherDisplay:10.37,2013-05-29 06:05:00,
2013-05-29 01:10:00,78.9,76.4,29.82,SSE,148,18.0,28.5,92,0.00,,,0.00,WeatherDisplay:10.37,2013-05-29 06:10:00,
2013-05-29 01:16:00,78.9,76.7,29.82,ESE,113,13.9,24.2,93,0.00,,,0.00,WeatherDisplay:10.37,2013-05-29 06:16:00,
2013-05-29 01:21:00,78.9,76.7,29.82,ESE,120,14.8,23.0,93,0.00,,,0.00,WeatherDisplay:10.37,2013-05-29 06:21:00,
2013-05-29 01:26:00,79.0,77.1,29.83,ESE,109,17.6,27.6,94,0.00,,,0.00,WeatherDisplay:10.37,2013-05-29 06:26:00,
2013-05-29 01:31:00,78.9,76.7,29.83,SE,126,16.6,28.8,93,0.00,,,0.00,WeatherDisplay:10.37,2013-05-29 06:31:00,
2013-05-29 01:36:00,78.9,77.0,29.83,SSE,150,13.3,25.3,94,0.00,,,0.00,WeatherDisplay:10.37,2013-05-29 06:36:00,
2013-05-29 01:41:00,78.9,77.0,29.83,SE,144,13.8,27.6,94,0.00,,,0.00,WeatherDisplay:10.37,2013-05-29 06:41:00,
2013-05-29 01:46:00,78.9,77.0,29.83,ESE,121,12.5,23.2,94,0.00,CLR,,0.00,WeatherDisplay:10.37,2013-05-29 06:46:00,
2013-05-29 01:51:00,78.9,77.0,29.83,SE,140,13.9,26.7,94,0.00,CLR,,0.00,WeatherDisplay:10.37,2013-05-29 06:51:00,
2013-05-29 01:56:00,78.9,77.0,29.84,SE,126,13.0,24.2,94,0.00,CLR,,0.00,WeatherDisplay:10.37,2013-05-29 06:56:00,
2013-05-29 02:01:00,78.9,77.0,29.84,SE,130,16.2,24.2,94,0.00,CLR,,0.00,WeatherDisplay:10.37,2013-05-29 07:01:00,
2013-05-29 02:06:00,78.9,77.0,29.84,NE,49,14.5,25.9,94,0.00,CLR,,0.00,WeatherDisplay:10.37,2013-05-29 07:06:00,
2013-05-29 02:11:00,78.9,77.0,29.84,ESE,114,14.4,21.9,94,0.00,CLR,,0.00,WeatherDisplay:10.37,2013-05-29 07:11:00,
2013-05-29 02:16:00,78.9,76.7,29.83,SE,128,15.1,27.0,93,0.00,CLR,,0.00,WeatherDisplay:10.37,2013-05-29 07:16:00,
2013-05-29 02:21:00,78.9,77.0,29.84,SE,130,13.6,23.0,94,0.00,,,0.00,WeatherDisplay:10.37,2013-05-29 07:21:00,
2013-05-29 02:26:00,79.0,77.1,29.84,SE,141,16.2,24.2,94,0.00,,,0.00,WeatherDisplay:10.37,2013-05-29 07:26:00,
2013-05-29 02:31:00,79.0,77.1,29.84,SE,136,13.9,26.5,94,0.00,,,0.00,WeatherDisplay:10.37,2013-05-29 07:31:00,
2013-05-29 02:36:00,79.0,77.1,29.84,East,82,15.1,26.5,94,0.00,,,0.00,WeatherDisplay:10.37,2013-05-29 07:36:00,
2013-05-29 02:41:00,79.0,77.1,29.84,SE,144,12.6,19.6,94,0.00,,,0.00,WeatherDisplay:10.37,2013-05-29 07:41:00,
2013-05-29 02:46:00,79.0,77.1,29.84,SE,130,13.1,23.0,94,0.00,,,0.00,WeatherDisplay:10.37,2013-05-29 07:46:00,
2013-05-29 02:51:00,79.0,77.4,29.84,East,95,14.4,21.8,95,0.00,CLR,,0.00,WeatherDisplay:10.37,2013-05-29 07:51:00,
2013-05-29 02:56:00,78.9,77.0,29.84,SSE,155,12.3,21.6,94,0.00,CLR,,0.00,WeatherDisplay:10.37,2013-05-29 07:56:00,
2013-05-29 03:01:00,78.9,77.3,29.83,East,99,12.9,19.6,95,0.00,CLR,,0.00,WeatherDisplay:10.37,2013-05-29 08:01:00,
2013-05-29 03:06:00,78.9,77.3,29.84,ESE,109,12.1,21.9,95,0.00,CLR,,0.00,WeatherDisplay:10.37,2013-05-29 08:06:00,
2013-05-29 03:11:00,78.8,76.9,29.84,ESE,114,14.2,23.0,94,0.00,,,0.00,WeatherDisplay:10.37,2013-05-29 08:11:00,
2013-05-29 03:16:00,78.9,77.0,29.84,SE,131,10.4,24.2,94,0.00,,,0.00,WeatherDisplay:10.37,2013-05-29 08:16:00,
2013-05-29 03:21:00,78.9,77.0,29.84,ENE,76,12.9,19.5,94,0.00,,,0.00,WeatherDisplay:10.37,2013-05-29 08:21:00,
2013-05-29 03:26:00,78.9,77.0,29.84,ESE,123,12.3,22.5,94,0.00,CLR,,0.00,WeatherDisplay:10.37,2013-05-29 08:26:00,
2013-05-29 03:31:00,78.9,77.0,29.84,SE,143,11.7,20.5,94,0.00,CLR,,0.00,WeatherDisplay:10.37,2013-05-29 08:31:00,
2013-05-29 03:36:00,78.9,77.0,29.84,ENE,65,11.2,16.1,94,0.00,CLR,,0.00,WeatherDisplay:10.37,2013-05-29 08:36:00,
2013-05-29 03:41:00,78.9,77.3,29.84,SE,131,11.8,18.4,95,0.00,CLR,,0.00,WeatherDisplay:10.37,2013-05-29 08:41:00,
2013-05-29 03:46:00,78.8,76.9,29.84,ESE,119,12.7,21.4,94,0.00,CLR,,0.00,WeatherDisplay:10.37,2013-05-29 08:46:00,
2013-05-29 03:51:00,78.9,77.3,29.85,SE,136,8.4,17.2,95,0.00,CLR,,0.00,WeatherDisplay:10.37,2013-05-29 08:51:00,
2013-05-29 03:56:00,78.8,77.2,29.84,SSE,164,10.2,20.7,95,0.00,CLR,,0.00,WeatherDisplay:10.37,2013-05-29 08:56:00,
2013-05-29 04:01:00,78.9,77.3,29.84,SSE,154,11.8,19.6,95,0.00,CLR,,0.00,WeatherDisplay:10.37,2013-05-29 09:01:00,
2013-05-29 04:06:00,78.9,77.3,29.84,ESE,103,10.8,19.6,95,0.00,CLR,,0.00,WeatherDisplay:10.37,2013-05-29 09:06:00,
2013-05-29 04:11:00,78.9,77.3,29.84,SSE,147,10.6,13.8,95,0.00,CLR,,0.00,WeatherDisplay:10.37,2013-05-29 09:11:00,
2013-05-29 04:16:00,78.9,77.3,29.84,SSE,148,8.9,13.8,95,0.00,CLR,,0.00,WeatherDisplay:10.37,2013-05-29 09:16:00,
2013-05-29 04:21:00,78.9,77.3,29.83,SE,138,9.8,15.9,95,0.00,CLR,,0.00,WeatherDisplay:10.37,2013-05-29 09:21:00,
2013-05-29 04:26:00,78.8,77.2,29.83,ESE,113,12.2,18.0,95,0.00,CLR,,0.00,WeatherDisplay:10.37,2013-05-29 09:26:00,
2013-05-29 04:31:00,78.8,77.2,29.83,ESE,119,12.1,20.1,95,0.00,CLR,,0.00,WeatherDisplay:10.37,2013-05-29 09:31:00,
2013-05-29 04:36:00,78.8,77.2,29.83,ESE,121,12.2,19.6,95,0.00,CLR,,0.00,WeatherDisplay:10.37,2013-05-29 09:36:00,
2013-05-29 04:41:00,78.8,77.6,29.83,ESE,104,10.8,18.4,96,0.00,CLR,,0.00,WeatherDisplay:10.37,2013-05-29 09:41:00,
2013-05-29 04:46:00,78.9,77.7,29.83,SSE,158,7.3,13.9,96,0.00,CLR,,0.00,WeatherDisplay:10.37,2013-05-29 09:46:00,
2013-05-29 04:51:00,78.8,77.6,29.83,ESE,119,9.9,20.4,96,0.00,CLR,,0.00,WeatherDisplay:10.37,2013-05-29 09:51:00,
2013-05-29 04:56:00,78.8,77.6,29.83,SE,133,7.5,13.8,96,0.00,CLR,,0.00,WeatherDisplay:10.37,2013-05-29 09:56:00,
2013-05-29 05:01:00,78.8,77.6,29.83,East,93,7.5,14.7,96,0.00,CLR,,0.00,WeatherDisplay:10.37,2013-05-29 10:01:00,
2013-05-29 05:06:00,78.8,77.6,29.83,ESE,123,10.5,16.2,96,0.00,CLR,,0.00,WeatherDisplay:10.37,2013-05-29 10:06:00,
2013-05-29 05:11:00,78.7,77.5,29.83,East,86,7.5,15.0,96,0.00,CLR,,0.00,WeatherDisplay:10.37,2013-05-29 10:11:00,
2013-05-29 05:16:00,78.7,77.5,29.83,SE,138,10.5,16.1,96,0.00,CLR,,0.00,WeatherDisplay:10.37,2013-05-29 10:16:00,
2013-05-29 05:21:00,78.7,77.5,29.83,ESE,123,8.4,17.3,96,0.00,CLR,,0.00,WeatherDisplay:10.37,2013-05-29 10:21:00,
2013-05-29 05:26:00,78.7,77.5,29.83,SSE,147,9.0,22.3,96,0.00,CLR,,0.00,WeatherDisplay:10.37,2013-05-29 10:26:00,
2013-05-29 05:31:00,78.8,77.6,29.83,South,169,8.1,15.0,96,0.00,CLR,,0.00,WeatherDisplay:10.37,2013-05-29 10:31:00,
2013-05-29 05:36:00,78.8,77.6,29.83,ESE,114,10.9,13.8,96,0.00,CLR,,0.00,WeatherDisplay:10.37,2013-05-29 10:36:00,
2013-05-29 05:41:00,78.7,77.5,29.83,SSE,147,8.7,13.8,96,0.00,CLR,,0.00,WeatherDisplay:10.37,2013-05-29 10:41:00,
2013-05-29 05:46:00,78.7,77.5,29.83,SE,126,8.5,16.1,96,0.00,CLR,,0.00,WeatherDisplay:10.37,2013-05-29 10:46:00,
2013-05-29 05:51:00,78.7,77.5,29.83,SE,137,9.5,12.7,96,0.00,CLR,,0.00,WeatherDisplay:10.37,2013-05-29 10:51:00,
2013-05-29 05:56:00,78.7,77.5,29.83,SE,143,7.3,12.7,96,0.00,CLR,,0.00,WeatherDisplay:10.37,2013-05-29 10:56:00,
2013-05-29 06:01:00,78.7,77.5,29.83,ESE,123,10.2,15.0,96,0.00,CLR,,0.00,WeatherDisplay:10.37,2013-05-29 11:01:00,
2013-05-29 06:06:00,78.7,77.5,29.83,SE,140,9.6,17.3,96,0.00,CLR,,0.00,WeatherDisplay:10.37,2013-05-29 11:06:00,
2013-05-29 06:11:00,78.7,77.5,29.84,SSE,148,9.2,12.7,96,0.00,CLR,,0.00,WeatherDisplay:10.37,2013-05-29 11:11:00,
2013-05-29 06:16:00,78.7,77.5,29.84,ESE,114,9.8,13.8,96,0.00,CLR,,0.00,WeatherDisplay:10.37,2013-05-29 11:16:00,
2013-05-29 06:21:00,78.7,77.5,29.85,SE,127,9.4,16.1,96,0.00,CLR,,0.00,WeatherDisplay:10.37,2013-05-29 11:21:00,
2013-05-29 06:26:00,78.7,77.5,29.85,ESE,121,9.0,13.8,96,0.00,CLR,,0.00,WeatherDisplay:10.37,2013-05-29 11:26:00,
2013-05-29 06:31:00,78.8,77.6,29.85,SSE,150,8.4,13.8,96,0.00,CLR,,0.00,WeatherDisplay:10.37,2013-05-29 11:31:00,
2013-05-29 06:36:00,78.8,77.6,29.85,SE,130,8.6,15.0,96,0.00,CLR,,0.00,WeatherDisplay:10.37,2013-05-29 11:36:00,
2013-05-29 06:41:00,78.7,77.5,29.85,ESE,121,7.9,15.0,96,0.00,CLR,,0.00,WeatherDisplay:10.37,2013-05-29 11:41:00,
2013-05-29 06:46:00,78.5,76.9,29.85,South,172,11.6,19.6,95,0.00,CLR,,0.00,WeatherDisplay:10.37,2013-05-29 11:46:00,
2013-05-29 06:51:00,78.7,77.1,29.85,SE,136,12.3,17.3,95,0.00,CLR,,0.00,WeatherDisplay:10.37,2013-05-29 11:51:00,
2013-05-29 06:56:00,78.8,77.2,29.85,SE,124,12.1,19.8,95,0.00,CLR,,0.00,WeatherDisplay:10.37,2013-05-29 11:56:00,
2013-05-29 07:01:00,78.8,77.2,29.85,ESE,113,11.2,20.0,95,0.00,CLR,,0.00,WeatherDisplay:10.37,2013-05-29 12:01:00,
2013-05-29 07:06:00,78.8,77.2,29.85,SE,124,14.4,18.8,95,0.00,CLR,,0.00,WeatherDisplay:10.37,2013-05-29 12:06:00,
2013-05-29 07:11:00,78.7,77.1,29.84,SE,145,10.1,21.9,95,0.00,CLR,,0.00,WeatherDisplay:10.37,2013-05-29 12:11:00,
2013-05-29 07:16:00,78.7,76.8,29.84,SSE,150,12.1,18.4,94,0.00,CLR,,0.00,WeatherDisplay:10.37,2013-05-29 12:16:00,
2013-05-29 07:21:00,78.8,77.2,29.84,ESE,121,12.3,17.7,95,0.00,CLR,,0.00,WeatherDisplay:10.37,2013-05-29 12:21:00,
2013-05-29 07:26:00,78.9,77.3,29.84,SSE,147,12.4,18.4,95,0.00,CLR,,0.00,WeatherDisplay:10.37,2013-05-29 12:26:00,
2013-05-29 07:31:00,78.8,76.9,29.84,SSE,157,13.2,18.5,94,0.00,CLR,,0.00,WeatherDisplay:10.37,2013-05-29 12:31:00,
2013-05-29 07:36:00,78.9,77.3,29.84,SSE,157,10.8,16.1,95,0.00,CLR,,0.00,WeatherDisplay:10.37,2013-05-29 12:36:00,
2013-05-29 07:41:00,79.0,77.4,29.84,South,185,9.9,15.1,95,0.00,CLR,,0.00,WeatherDisplay:10.37,2013-05-29 12:41:00,
2013-05-29 07:46:00,79.0,77.4,29.84,SE,143,11.3,16.2,95,0.00,CLR,,0.00,WeatherDisplay:10.37,2013-05-29 12:46:00,
2013-05-29 07:51:00,78.9,77.3,29.84,SSE,158,12.1,18.4,95,0.00,CLR,,0.00,WeatherDisplay:10.37,2013-05-29 12:51:00,
2013-05-29 07:56:00,79.0,77.4,29.84,SSE,151,12.2,20.7,95,0.00,CLR,,0.00,WeatherDisplay:10.37,2013-05-29 12:56:00,
2013-05-29 08:01:00,79.1,77.5,29.85,SE,144,11.4,16.1,95,0.00,CLR,,0.00,WeatherDisplay:10.37,2013-05-29 13:01:00,
2013-05-29 08:06:00,79.1,77.2,29.85,SSE,154,13.7,17.3,94,0.00,CLR,,0.00,WeatherDisplay:10.37,2013-05-29 13:06:00,
2013-05-29 08:11:00,79.2,77.0,29.85,SE,141,11.4,17.3,93,0.00,CLR,,0.00,WeatherDisplay:10.37,2013-05-29 13:11:00,
2013-05-29 08:16:00,79.3,77.1,29.85,SSE,154,9.4,17.3,93,0.00,CLR,,0.00,WeatherDisplay:10.37,2013-05-29 13:16:00,
2013-05-29 08:21:00,79.4,77.2,29.85,ESE,114,9.6,16.3,93,0.00,CLR,,0.00,WeatherDisplay:10.37,2013-05-29 13:21:00,
2013-05-29 08:26:00,79.7,77.5,29.86,SE,136,10.0,15.0,93,0.00,CLR,,0.00,WeatherDisplay:10.37,2013-05-29 13:26:00,
2013-05-29 08:31:00,79.9,77.4,29.86,SE,140,9.7,19.6,92,0.00,CLR,,0.00,WeatherDisplay:10.37,2013-05-29 13:31:00,
2013-05-29 08:36:00,79.9,77.4,29.86,SE,133,10.0,17.3,92,0.00,CLR,,0.00,WeatherDisplay:10.37,2013-05-29 13:36:00,
2013-05-29 08:41:00,80.0,77.5,29.85,ESE,117,10.8,18.4,92,0.00,CLR,,0.00,WeatherDisplay:10.37,2013-05-29 13:41:00,
2013-05-29 08:46:00,80.0,77.1,29.85,SE,137,10.6,19.6,91,0.00,CLR,,0.00,WeatherDisplay:10.37,2013-05-29 13:46:00,
2013-05-29 08:51:00,79.9,77.0,29.85,SSE,157,11.6,20.6,91,0.00,CLR,,0.00,WeatherDisplay:10.37,2013-05-29 13:51:00,
2013-05-29 08:56:00,79.9,77.0,29.85,SSE,148,10.5,18.5,91,0.00,CLR,,0.00,WeatherDisplay:10.37,2013-05-29 13:56:00,
2013-05-29 09:01:00,79.9,77.0,29.86,SE,140,15.6,22.0,91,0.00,CLR,,0.00,WeatherDisplay:10.37,2013-05-29 14:01:00,
2013-05-29 09:06:00,79.9,77.0,29.86,SSE,154,11.9,18.4,91,0.00,CLR,,0.00,WeatherDisplay:10.37,2013-05-29 14:06:00,
2013-05-29 09:11:00,79.9,77.0,29.86,SE,138,11.6,16.5,91,0.00,CLR,,0.00,WeatherDisplay:10.37,2013-05-29 14:11:00,
2013-05-29 09:16:00,79.9,76.7,29.86,ESE,114,14.1,20.9,90,0.00,CLR,,0.00,WeatherDisplay:10.37,2013-05-29 14:16:00,
2013-05-29 09:21:00,80.0,76.8,29.86,SE,136,14.5,19.2,90,0.00,CLR,,0.00,WeatherDisplay:10.37,2013-05-29 14:21:00,
2013-05-29 09:26:00,80.0,76.8,29.86,ESE,110,14.1,23.0,90,0.00,CLR,,0.00,WeatherDisplay:10.37,2013-05-29 14:26:00,
2013-05-29 09:32:00,80.0,76.8,29.87,South,174,16.1,23.0,90,0.00,,,0.00,WeatherDisplay:10.37,2013-05-29 14:32:00,
2013-05-29 09:37:00,80.0,76.8,29.86,SE,143,13.3,19.6,90,0.00,,,0.00,WeatherDisplay:10.37,2013-05-29 14:37:00,
2013-05-29 09:42:00,80.1,76.9,29.86,SSE,161,14.5,23.0,90,0.00,,,0.00,WeatherDisplay:10.37,2013-05-29 14:42:00,
2013-05-29 09:47:00,80.0,76.8,29.86,SE,143,11.4,18.4,90,0.00,CLR,,0.00,WeatherDisplay:10.37,2013-05-29 14:47:00,
2013-05-29 09:52:00,80.0,76.8,29.85,SE,141,14.6,25.8,90,0.00,CLR,,0.00,WeatherDisplay:10.37,2013-05-29 14:52:00,
2013-05-29 09:57:00,80.0,76.8,29.85,SSE,154,14.0,21.9,90,0.00,,,0.00,WeatherDisplay:10.37,2013-05-29 14:57:00,
2013-05-29 10:02:00,79.9,76.7,29.85,SSE,150,14.7,23.0,90,0.00,,,0.00,WeatherDisplay:10.37,2013-05-29 15:02:00,
2013-05-29 10:07:00,80.0,76.8,29.85,SE,140,13.3,22.1,90,0.00,,,0.00,WeatherDisplay:10.37,2013-05-29 15:07:00,
2013-05-29 10:12:00,80.0,76.8,29.85,SSE,150,13.5,23.7,90,0.00,CLR,,0.00,WeatherDisplay:10.37,2013-05-29 15:12:00,
2013-05-29 10:17:00,80.0,76.8,29.84,SSE,148,13.2,25.3,90,0.00,CLR,,0.00,WeatherDisplay:10.37,2013-05-29 15:17:00,
2013-05-29 10:22:00,80.0,77.1,29.84,ESE,121,16.2,21.9,91,0.00,CLR,,0.00,WeatherDisplay:10.37,2013-05-29 15:22:00,
2013-05-29 10:27:00,80.0,77.1,29.84,SSE,158,15.3,25.7,91,0.00,,,0.00,WeatherDisplay:10.37,2013-05-29 15:27:00,
2013-05-29 10:33:00,79.9,77.4,29.84,ESE,116,13.9,20.7,92,0.00,,,0.00,WeatherDisplay:10.37,2013-05-29 15:33:00,
2013-05-29 10:38:00,79.8,77.3,29.84,ESE,116,14.8,23.0,92,0.00,CLR,,0.00,WeatherDisplay:10.37,2013-05-29 15:38:00,
2013-05-29 10:43:00,79.9,77.4,29.83,SE,124,15.4,23.0,92,0.00,CLR,,0.00,WeatherDisplay:10.37,2013-05-29 15:43:00,
2013-05-29 10:48:00,79.9,77.4,29.83,SSE,147,13.1,23.0,92,0.00,CLR,,0.00,WeatherDisplay:10.37,2013-05-29 15:48:00,
2013-05-29 10:53:00,79.9,77.0,29.83,SSE,154,14.3,21.9,91,0.00,,,0.00,WeatherDisplay:10.37,2013-05-29 15:53:00,
2013-05-29 10:58:00,79.9,77.4,29.83,SSE,157,16.4,26.5,92,0.00,,,0.00,WeatherDisplay:10.37,2013-05-29 15:58:00,
2013-05-29 11:03:00,79.8,76.9,29.83,SE,128,18.2,27.6,91,0.00,,,0.00,WeatherDisplay:10.37,2013-05-29 16:03:00,
2013-05-29 11:08:00,79.9,77.4,29.83,ESE,112,13.8,26.8,92,0.00,,,0.00,WeatherDisplay:10.37,2013-05-29 16:08:00,
2013-05-29 11:13:00,79.9,77.4,29.83,SSE,152,15.1,23.9,92,0.00,,,0.00,WeatherDisplay:10.37,2013-05-29 16:13:00,
2013-05-29 11:18:00,79.9,77.4,29.83,SSE,152,13.3,21.9,92,0.00,,,0.00,WeatherDisplay:10.37,2013-05-29 16:18:00,
2013-05-29 11:23:00,79.9,77.0,29.83,SE,126,16.6,26.5,91,0.00,,,0.00,WeatherDisplay:10.37,2013-05-29 16:23:00,
2013-05-29 11:28:00,80.1,77.2,29.83,SE,130,14.6,24.2,91,0.00,,,0.00,WeatherDisplay:10.37,2013-05-29 16:28:00,
2013-05-29 11:33:00,80.1,76.9,29.83,ESE,120,17.7,30.9,90,0.00,,,0.00,WeatherDisplay:10.37,2013-05-29 16:33:00,
2013-05-29 11:38:00,80.2,76.3,29.83,SSE,151,18.8,32.1,88,0.00,,,0.00,WeatherDisplay:10.37,2013-05-29 16:38:00,
2013-05-29 11:43:00,80.3,76.8,29.82,ESE,107,16.4,28.6,89,0.00,,,0.00,WeatherDisplay:10.37,2013-05-29 16:43:00,
2013-05-29 11:48:00,80.4,76.9,29.82,ESE,107,16.1,23.0,89,0.00,,,0.00,WeatherDisplay:10.37,2013-05-29 16:48:00,
2013-05-29 11:53:00,80.3,76.8,29.82,SSE,148,15.7,24.2,89,0.00,CLR,,0.00,WeatherDisplay:10.37,2013-05-29 16:53:00,
2013-05-29 11:58:00,80.2,76.7,29.82,ESE,121,16.3,28.2,89,0.00,,,0.00,WeatherDisplay:10.37,2013-05-29 16:58:00,
2013-05-29 12:03:00,80.3,76.8,29.82,SE,138,17.0,26.9,89,0.00,,,0.00,WeatherDisplay:10.37,2013-05-29 17:03:00,
2013-05-29 12:08:00,80.4,76.5,29.82,SE,141,17.9,30.3,88,0.00,,,0.00,WeatherDisplay:10.37,2013-05-29 17:08:00,
2013-05-29 12:13:00,80.5,76.6,29.83,SE,136,14.7,24.9,88,0.00,,,0.00,WeatherDisplay:10.37,2013-05-29 17:13:00,
2013-05-29 12:18:00,80.5,76.3,29.83,SE,124,18.6,29.9,87,0.00,,,0.00,WeatherDisplay:10.37,2013-05-29 17:18:00,
2013-05-29 12:23:00,80.4,76.2,29.82,ESE,123,18.0,28.8,87,0.00,,,0.00,WeatherDisplay:10.37,2013-05-29 17:23:00,
2013-05-29 12:28:00,80.5,76.6,29.82,SSE,162,16.6,26.5,88,0.00,,,0.00,WeatherDisplay:10.37,2013-05-29 17:28:00,
2013-05-29 12:33:00,80.4,76.5,29.82,SE,143,15.9,28.5,88,0.00,,,0.00,WeatherDisplay:10.37,2013-05-29 17:33:00,
2013-05-29 12:38:00,80.4,76.2,29.81,ENE,75,17.4,31.5,87,0.00,,,0.00,WeatherDisplay:10.37,2013-05-29 17:38:00,
2013-05-29 12:43:00,80.5,76.6,29.81,SE,126,15.8,23.0,88,0.00,,,0.00,WeatherDisplay:10.37,2013-05-29 17:43:00,
2013-05-29 12:48:00,80.5,76.6,29.81,SE,143,16.8,27.6,88,0.00,,,0.00,WeatherDisplay:10.37,2013-05-29 17:48:00,
2013-05-29 12:53:00,80.4,76.5,29.81,SE,145,16.1,26.5,88,0.00,,,0.00,WeatherDisplay:10.37,2013-05-29 17:53:00,
2013-05-29 12:59:00,80.4,76.9,29.82,East,97,14.7,24.2,89,0.00,,,0.00,WeatherDisplay:10.37,2013-05-29 17:59:00,
2013-05-29 13:04:00,80.4,76.5,29.82,SE,131,16.2,28.8,88,0.00,,,0.00,WeatherDisplay:10.37,2013-05-29 18:04:00,
2013-05-29 13:09:00,80.5,77.0,29.82,SSE,154,14.4,28.4,89,0.00,CLR,,0.00,WeatherDisplay:10.37,2013-05-29 18:09:00,
2013-05-29 13:14:00,80.4,76.5,29.82,ESE,112,14.9,31.1,88,0.00,,,0.00,WeatherDisplay:10.37,2013-05-29 18:14:00,
2013-05-29 13:19:00,80.5,77.0,29.82,SE,140,14.2,31.1,89,0.00,,,0.00,WeatherDisplay:10.37,2013-05-29 18:19:00,
2013-05-29 13:24:00,80.5,77.0,29.82,South,174,14.8,23.3,89,0.00,,,0.00,WeatherDisplay:10.37,2013-05-29 18:24:00,
2013-05-29 13:29:00,80.5,77.0,29.81,SE,124,15.6,22.3,89,0.00,CLR,,0.00,WeatherDisplay:10.37,2013-05-29 18:29:00,
2013-05-29 13:34:00,80.5,76.6,29.82,East,97,13.7,24.2,88,0.00,,,0.00,WeatherDisplay:10.37,2013-05-29 18:34:00,
2013-05-29 13:39:00,80.5,76.6,29.81,ESE,113,14.3,25.3,88,0.00,,,0.00,WeatherDisplay:10.37,2013-05-29 18:39:00,
2013-05-29 13:44:00,80.3,76.4,29.81,ESE,109,15.4,24.2,88,0.00,,,0.00,WeatherDisplay:10.37,2013-05-29 18:44:00,
2013-05-29 13:49:00,80.4,76.5,29.81,SE,137,16.5,23.2,88,0.00,,,0.00,WeatherDisplay:10.37,2013-05-29 18:49:00,
2013-05-29 13:54:00,80.4,76.9,29.81,ESE,113,15.1,26.5,89,0.00,,,0.00,WeatherDisplay:10.37,2013-05-29 18:54:00,
2013-05-29 13:59:00,80.4,76.9,29.80,ESE,117,16.0,24.3,89,0.00,,,0.00,WeatherDisplay:10.37,2013-05-29 18:59:00,
2013-05-29 14:04:00,80.4,76.9,29.78,East,100,20.1,30.4,89,0.00,,,0.00,WeatherDisplay:10.37,2013-05-29 19:04:00,
2013-05-29 14:09:00,80.4,77.2,29.77,SE,138,17.4,27.6,90,0.00,,,0.00,WeatherDisplay:10.37,2013-05-29 19:09:00,
2013-05-29 14:14:00,80.4,76.9,29.77,SE,138,20.3,31.1,89,0.00,,,0.00,WeatherDisplay:10.37,2013-05-29 19:14:00,
2013-05-29 14:19:00,80.4,77.2,29.77,ESE,119,15.8,26.5,90,0.00,,,0.00,WeatherDisplay:10.37,2013-05-29 19:19:00,
2013-05-29 14:24:00,80.4,76.9,29.77,ESE,112,17.9,30.9,89,0.00,,,0.00,WeatherDisplay:10.37,2013-05-29 19:24:00,
2013-05-29 14:29:00,80.4,77.2,29.77,ESE,102,16.3,28.7,90,0.00,,,0.00,WeatherDisplay:10.37,2013-05-29 19:29:00,
2013-05-29 14:34:00,80.4,77.2,29.77,ESE,113,15.7,26.5,90,0.00,,,0.00,WeatherDisplay:10.37,2013-05-29 19:34:00,
2013-05-29 14:39:00,80.4,77.2,29.77,East,96,13.4,32.4,90,0.00,,,0.00,WeatherDisplay:10.37,2013-05-29 19:39:00,
2013-05-29 14:44:00,80.5,77.6,29.77,East,95,16.8,32.4,91,0.00,,,0.00,WeatherDisplay:10.37,2013-05-29 19:44:00,
2013-05-29 14:49:00,80.4,77.2,29.76,SE,131,21.4,34.5,90,0.00,,,0.00,WeatherDisplay:10.37,2013-05-29 19:49:00,
2013-05-29 14:54:00,80.4,77.2,29.77,ESE,119,16.1,25.3,90,0.00,,,0.00,WeatherDisplay:10.37,2013-05-29 19:54:00,
2013-05-29 14:59:00,80.4,77.2,29.79,ESE,117,12.1,27.8,90,0.00,,,0.00,WeatherDisplay:10.37,2013-05-29 19:59:00,
2013-05-29 15:04:00,80.6,77.4,29.80,SE,136,13.4,22.2,90,0.00,CLR,,0.00,WeatherDisplay:10.37,2013-05-29 20:04:00,
2013-05-29 15:09:00,80.8,76.9,29.80,ESE,114,15.0,21.9,88,0.00,CLR,,0.00,WeatherDisplay:10.37,2013-05-29 20:09:00,
2013-05-29 15:15:00,81.3,77.4,29.79,ESE,117,13.6,23.0,88,0.00,CLR,,0.00,WeatherDisplay:10.37,2013-05-29 20:15:00,
2013-05-29 15:20:00,81.4,77.5,29.79,ESE,123,14.5,23.2,88,0.00,CLR,,0.00,WeatherDisplay:10.37,2013-05-29 20:20:00,
2013-05-29 15:25:00,81.4,77.2,29.79,SE,141,15.7,26.5,87,0.00,,,0.00,WeatherDisplay:10.37,2013-05-29 20:25:00,
2013-05-29 15:30:00,81.3,77.1,29.79,SSE,154,17.6,27.0,87,0.00,,,0.00,WeatherDisplay:10.37,2013-05-29 20:30:00,
2013-05-29 15:35:00,81.2,77.3,29.78,ESE,121,16.2,24.2,88,0.00,,,0.00,WeatherDisplay:10.37,2013-05-29 20:35:00,
2013-05-29 15:40:00,81.2,77.3,29.78,ESE,112,16.9,28.8,88,0.00,,,0.00,WeatherDisplay:10.37,2013-05-29 20:40:00,
2013-05-29 15:45:00,81.1,76.9,29.77,SE,130,17.5,25.3,87,0.00,,,0.00,WeatherDisplay:10.37,2013-05-29 20:45:00,
2013-05-29 15:50:00,81.2,76.3,29.77,SSE,154,17.2,25.5,85,0.00,,,0.00,WeatherDisplay:10.37,2013-05-29 20:50:00,
2013-05-29 15:55:00,81.2,76.6,29.78,SSE,155,15.2,27.0,86,0.00,,,0.00,WeatherDisplay:10.37,2013-05-29 20:55:00,
2013-05-29 16:00:00,81.1,76.9,29.77,ESE,109,15.6,24.2,87,0.00,,,0.00,WeatherDisplay:10.37,2013-05-29 21:00:00,
2013-05-29 16:05:00,81.1,77.2,29.77,ESE,120,19.0,28.3,88,0.00,,,0.00,WeatherDisplay:10.37,2013-05-29 21:05:00,
2013-05-29 16:10:00,80.8,76.9,29.77,SE,131,15.6,26.5,88,0.00,,,0.00,WeatherDisplay:10.37,2013-05-29 21:10:00,
2013-05-29 16:15:00,80.6,76.4,29.77,SE,131,17.6,27.6,87,0.00,,,0.00,WeatherDisplay:10.37,2013-05-29 21:15:00,
2013-05-29 16:20:00,80.7,76.8,29.76,ESE,121,15.3,24.2,88,0.00,,,0.00,WeatherDisplay:10.37,2013-05-29 21:20:00,
2013-05-29 16:25:00,80.6,76.4,29.77,ESE,119,14.8,25.3,87,0.00,,,0.00,WeatherDisplay:10.37,2013-05-29 21:25:00,
2013-05-29 16:30:00,80.7,76.5,29.76,ESE,114,17.5,27.6,87,0.00,,,0.00,WeatherDisplay:10.37,2013-05-29 21:30:00,
2013-05-29 16:35:00,80.8,76.9,29.76,SE,127,15.8,25.3,88,0.00,,,0.00,WeatherDisplay:10.37,2013-05-29 21:35:00,
2013-05-29 16:40:00,80.8,76.2,29.76,ESE,113,18.8,30.5,86,0.00,,,0.00,WeatherDisplay:10.37,2013-05-29 21:40:00,
2013-05-29 16:45:00,80.7,76.8,29.75,SE,133,14.1,25.3,88,0.00,,,0.00,WeatherDisplay:10.37,2013-05-29 21:45:00,
2013-05-29 16:50:00,80.7,77.2,29.75,East,96,17.0,28.8,89,0.00,,,0.00,WeatherDisplay:10.37,2013-05-29 21:50:00,
2013-05-29 16:55:00,80.8,76.9,29.75,East,83,17.6,26.5,88,0.00,,,0.00,WeatherDisplay:10.37,2013-05-29 21:55:00,
2013-05-29 17:00:00,81.2,77.3,29.75,SE,138,13.1,19.6,88,0.00,,,0.00,WeatherDisplay:10.37,2013-05-29 22:00:00,
2013-05-29 17:05:00,81.4,77.2,29.75,ESE,113,17.8,28.8,87,0.00,,,0.00,WeatherDisplay:10.37,2013-05-29 22:05:00,
2013-05-29 17:10:00,81.2,77.0,29.76,SSE,157,17.1,27.3,87,0.00,,,0.00,WeatherDisplay:10.37,2013-05-29 22:10:00,
2013-05-29 17:15:00,80.9,77.0,29.76,ESE,113,14.5,23.0,88,0.00,,,0.00,WeatherDisplay:10.37,2013-05-29 22:15:00,
2013-05-29 17:20:00,80.6,76.7,29.76,ESE,112,19.3,28.0,88,0.00,,,0.00,WeatherDisplay:10.37,2013-05-29 22:20:00,
2013-05-29 17:25:00,80.5,77.0,29.76,SE,127,16.0,27.6,89,0.00,,,0.00,WeatherDisplay:10.37,2013-05-29 22:25:00,
2013-05-29 17:30:00,80.8,77.3,29.76,ESE,109,14.2,20.8,89,0.00,,,0.00,WeatherDisplay:10.37,2013-05-29 22:30:00,
2013-05-29 17:35:00,81.2,77.3,29.75,East,88,15.7,23.0,88,0.00,,,0.00,WeatherDisplay:10.37,2013-05-29 22:35:00,
2013-05-29 17:40:00,81.5,77.3,29.75,SE,126,13.6,19.1,87,0.00,CLR,,0.00,WeatherDisplay:10.37,2013-05-29 22:40:00,
2013-05-29 17:45:00,81.4,77.2,29.75,East,86,11.7,19.6,87,0.00,CLR,,0.00,WeatherDisplay:10.37,2013-05-29 22:45:00,
2013-05-29 17:50:00,81.4,77.2,29.75,SE,145,14.6,24.2,87,0.00,CLR,,0.00,WeatherDisplay:10.37,2013-05-29 22:50:00,
2013-05-29 17:56:00,81.4,77.5,29.75,East,88,12.3,24.9,88,0.00,CLR,,0.00,WeatherDisplay:10.37,2013-05-29 22:56:00,
2013-05-29 18:01:00,81.3,77.4,29.76,SSE,154,11.0,20.7,88,0.00,CLR,,0.00,WeatherDisplay:10.37,2013-05-29 23:01:00,
2013-05-29 18:06:00,81.2,77.3,29.76,SE,137,13.8,21.9,88,0.00,CLR,,0.00,WeatherDisplay:10.37,2013-05-29 23:06:00,
2013-05-29 18:11:00,81.0,77.4,29.76,SE,127,14.4,22.2,89,0.00,CLR,,0.00,WeatherDisplay:10.37,2013-05-29 23:11:00,
2013-05-29 18:16:00,80.8,77.3,29.75,SE,131,14.1,25.3,89,0.00,,,0.00,WeatherDisplay:10.37,2013-05-29 23:16:00,
2013-05-29 18:21:00,80.9,77.7,29.75,ENE,66,11.2,17.3,90,0.00,,,0.00,WeatherDisplay:10.37,2013-05-29 23:21:00,
2013-05-29 18:26:00,80.9,77.4,29.75,ESE,116,12.2,23.0,89,0.00,,,0.00,WeatherDisplay:10.37,2013-05-29 23:26:00,
2013-05-29 18:31:00,80.6,77.4,29.76,ESE,112,15.4,28.8,90,0.00,,,0.00,WeatherDisplay:10.37,2013-05-29 23:31:00,
2013-05-29 18:36:00,80.5,77.3,29.76,East,96,12.7,22.3,90,0.00,,,0.00,WeatherDisplay:10.37,2013-05-29 23:36:00,
2013-05-29 18:41:00,80.4,77.2,29.75,SE,138,15.2,25.3,90,0.00,,,0.00,WeatherDisplay:10.37,2013-05-29 23:41:00,
2013-05-29 18:46:00,80.5,77.3,29.75,ESE,114,15.3,24.4,90,0.00,,,0.00,WeatherDisplay:10.37,2013-05-29 23:46:00,
2013-05-29 18:51:00,80.4,77.5,29.76,ESE,109,14.7,24.2,91,0.00,,,0.00,WeatherDisplay:10.37,2013-05-29 23:51:00,
2013-05-29 18:56:00,80.3,77.4,29.75,SE,133,15.4,24.2,91,0.00,,,0.00,WeatherDisplay:10.37,2013-05-29 23:56:00,
2013-05-29 19:01:00,80.3,77.4,29.75,ESE,107,14.5,21.9,91,0.00,CLR,,0.00,WeatherDisplay:10.37,2013-05-30 00:01:00,
2013-05-29 19:06:00,80.3,77.8,29.75,SE,141,13.5,25.9,92,0.00,,,0.00,WeatherDisplay:10.37,2013-05-30 00:06:00,
2013-05-29 19:11:00,80.2,77.7,29.75,ESE,117,14.3,23.0,92,0.00,,,0.00,WeatherDisplay:10.37,2013-05-30 00:11:00,
2013-05-29 19:16:00,80.2,77.7,29.75,ESE,110,12.0,17.7,92,0.00,,,0.00,WeatherDisplay:10.37,2013-05-30 00:16:00,
2013-05-29 19:21:00,80.2,78.0,29.75,ESE,103,11.8,21.9,93,0.00,CLR,,0.00,WeatherDisplay:10.37,2013-05-30 00:21:00,
2013-05-29 19:26:00,80.1,77.9,29.76,East,79,15.1,24.4,93,0.00,CLR,,0.00,WeatherDisplay:10.37,2013-05-30 00:26:00,
2013-05-29 19:31:00,80.0,77.8,29.76,SE,134,13.2,21.9,93,0.00,,,0.00,WeatherDisplay:10.37,2013-05-30 00:31:00,
2013-05-29 19:36:00,80.0,77.8,29.76,SE,130,16.7,24.2,93,0.00,,,0.00,WeatherDisplay:10.37,2013-05-30 00:36:00,
2013-05-29 19:41:00,79.9,77.7,29.76,SE,124,16.1,23.0,93,0.00,,,0.00,WeatherDisplay:10.37,2013-05-30 00:41:00,
2013-05-29 19:46:00,79.9,78.0,29.76,ESE,102,10.4,16.1,94,0.00,CLR,,0.00,WeatherDisplay:10.37,2013-05-30 00:46:00,
2013-05-29 19:51:00,79.9,78.0,29.76,ESE,109,14.6,25.3,94,0.00,CLR,,0.00,WeatherDisplay:10.37,2013-05-30 00:51:00,
2013-05-29 19:56:00,79.8,77.9,29.76,SE,127,12.6,19.6,94,0.00,CLR,,0.00,WeatherDisplay:10.37,2013-05-30 00:56:00,
2013-05-29 20:01:00,79.8,77.9,29.77,ESE,113,13.0,20.7,94,0.00,CLR,,0.00,WeatherDisplay:10.37,2013-05-30 01:01:00,
2013-05-29 20:06:00,79.8,77.9,29.77,SE,126,12.6,24.2,94,0.00,CLR,,0.00,WeatherDisplay:10.37,2013-05-30 01:06:00,
2013-05-29 20:11:00,79.7,77.8,29.77,ESE,106,13.8,24.2,94,0.00,CLR,,0.00,WeatherDisplay:10.37,2013-05-30 01:11:00,
2013-05-29 20:16:00,79.7,77.8,29.77,East,85,11.9,23.1,94,0.00,CLR,,0.00,WeatherDisplay:10.37,2013-05-30 01:16:00,
2013-05-29 20:21:00,79.7,77.8,29.77,SE,127,13.6,23.0,94,0.00,CLR,,0.00,WeatherDisplay:10.37,2013-05-30 01:21:00,
2013-05-29 20:26:00,79.5,77.9,29.77,ESE,107,15.8,24.2,95,0.00,CLR,,0.00,WeatherDisplay:10.37,2013-05-30 01:26:00,
2013-05-29 20:31:00,79.5,77.6,29.77,East,89,15.0,21.9,94,0.00,CLR,,0.00,WeatherDisplay:10.37,2013-05-30 01:31:00,
2013-05-29 20:36:00,79.4,77.8,29.78,ENE,76,11.6,18.4,95,0.00,CLR,,0.00,WeatherDisplay:10.37,2013-05-30 01:36:00,
2013-05-29 20:41:00,79.4,77.8,29.77,ESE,116,12.1,20.7,95,0.00,CLR,,0.00,WeatherDisplay:10.37,2013-05-30 01:41:00,
2013-05-29 20:46:00,79.4,77.8,29.77,East,89,9.7,23.0,95,0.00,CLR,,0.00,WeatherDisplay:10.37,2013-05-30 01:46:00,
2013-05-29 20:51:00,79.4,77.8,29.77,SE,126,12.5,18.4,95,0.00,CLR,,0.00,WeatherDisplay:10.37,2013-05-30 01:51:00,
2013-05-29 20:57:00,79.4,77.8,29.77,ESE,123,12.7,18.4,95,0.00,CLR,,0.00,WeatherDisplay:10.37,2013-05-30 01:57:00,
2013-05-29 21:02:00,79.2,77.6,29.77,ESE,113,10.1,20.7,95,0.00,CLR,,0.00,WeatherDisplay:10.37,2013-05-30 02:02:00,
2013-05-29 21:07:00,79.3,77.7,29.77,SSE,164,11.5,17.5,95,0.00,CLR,,0.00,WeatherDisplay:10.37,2013-05-30 02:07:00,
2013-05-29 21:12:00,79.2,77.6,29.77,ESE,114,10.8,17.3,95,0.00,CLR,,0.00,WeatherDisplay:10.37,2013-05-30 02:12:00,
2013-05-29 21:17:00,79.2,77.6,29.77,ESE,114,11.3,20.0,95,0.00,CLR,,0.00,WeatherDisplay:10.37,2013-05-30 02:17:00,
2013-05-29 21:22:00,79.2,77.6,29.77,ESE,103,15.9,24.2,95,0.00,CLR,,0.00,WeatherDisplay:10.37,2013-05-30 02:22:00,
2013-05-29 21:27:00,79.2,78.0,29.77,East,100,12.2,19.6,96,0.00,,,0.00,WeatherDisplay:10.37,2013-05-30 02:27:00,
2013-05-29 21:32:00,79.2,77.6,29.78,ESE,106,13.1,19.6,95,0.00,,,0.00,WeatherDisplay:10.37,2013-05-30 02:32:00,
2013-05-29 21:37:00,79.2,78.0,29.78,ESE,116,14.7,21.9,96,0.00,,,0.00,WeatherDisplay:10.37,2013-05-30 02:37:00,
2013-05-29 21:42:00,79.2,77.6,29.78,ESE,114,12.4,17.3,95,0.00,CLR,,0.00,WeatherDisplay:10.37,2013-05-30 02:42:00,
2013-05-29 21:47:00,79.2,77.6,29.78,SE,137,14.4,22.2,95,0.00,CLR,,0.00,WeatherDisplay:10.37,2013-05-30 02:47:00,
2013-05-29 21:52:00,79.2,77.6,29.78,SE,137,12.0,17.3,95,0.00,CLR,,0.00,WeatherDisplay:10.37,2013-05-30 02:52:00,
2013-05-29 21:57:00,79.2,78.0,29.78,ESE,106,11.3,19.6,96,0.00,CLR,,0.00,WeatherDisplay:10.37,2013-05-30 02:57:00,
2013-05-29 22:02:00,79.2,78.0,29.78,East,90,11.8,18.5,96,0.00,,,0.00,WeatherDisplay:10.37,2013-05-30 03:02:00,
2013-05-29 22:07:00,79.2,77.6,29.78,East,88,15.0,23.2,95,0.00,,,0.00,WeatherDisplay:10.37,2013-05-30 03:07:00,
2013-05-29 22:12:00,79.2,77.6,29.78,SE,124,15.3,24.2,95,0.00,,,0.00,WeatherDisplay:10.37,2013-05-30 03:12:00,
2013-05-29 22:17:00,79.2,78.0,29.78,ESE,116,12.3,20.7,96,0.00,CLR,,0.00,WeatherDisplay:10.37,2013-05-30 03:17:00,
2013-05-29 22:22:00,79.2,78.0,29.78,SSE,147,15.0,24.2,96,0.00,,,0.00,WeatherDisplay:10.37,2013-05-30 03:22:00,
2013-05-29 22:27:00,79.2,77.6,29.79,ESE,113,14.7,23.0,95,0.00,,,0.00,WeatherDisplay:10.37,2013-05-30 03:27:00,
2013-05-29 22:32:00,79.1,77.5,29.79,SE,133,18.9,30.5,95,0.00,,,0.00,WeatherDisplay:10.37,2013-05-30 03:32:00,
2013-05-29 22:37:00,79.2,77.6,29.79,East,88,10.9,24.6,95,0.00,CLR,,0.00,WeatherDisplay:10.37,2013-05-30 03:37:00,
2013-05-29 22:42:00,79.2,77.6,29.80,ESE,114,12.5,21.9,95,0.00,CLR,,0.00,WeatherDisplay:10.37,2013-05-30 03:42:00,
2013-05-29 22:47:00,79.2,77.6,29.80,ENE,71,13.2,21.9,95,0.00,,,0.00,WeatherDisplay:10.37,2013-05-30 03:47:00,
2013-05-29 22:52:00,79.2,77.6,29.80,SE,133,15.8,22.4,95,0.00,,,0.00,WeatherDisplay:10.37,2013-05-30 03:52:00,
2013-05-29 22:57:00,79.2,77.6,29.80,ESE,107,13.1,24.4,95,0.00,,,0.00,WeatherDisplay:10.37,2013-05-30 03:57:00,
2013-05-29 23:01:00,79.2,77.6,29.81,SE,136,10.5,17.3,95,0.00,CLR,,0.00,WeatherDisplay:10.37,2013-05-30 04:01:00,
2013-05-29 23:02:00,79.2,77.6,29.81,ESE,117,10.6,18.4,95,0.00,CLR,,0.00,WeatherDisplay:10.37,2013-05-30 04:02:00,
2013-05-29 23:03:00,79.2,77.6,29.81,ESE,112,12.7,18.4,95,0.00,CLR,,0.00,WeatherDisplay:10.37,2013-05-30 04:03:00,
2013-05-29 23:04:00,79.2,77.6,29.81,SSE,158,13.1,19.2,95,0.00,CLR,,0.00,WeatherDisplay:10.37,2013-05-30 04:04:00,
2013-05-29 23:09:00,79.2,77.6,29.81,ESE,110,12.5,25.3,95,0.00,,,0.00,WeatherDisplay:10.37,2013-05-30 04:09:00,
2013-05-29 23:14:00,79.2,77.6,29.81,East,96,18.4,21.1,95,0.00,,,0.00,WeatherDisplay:10.37,2013-05-30 04:14:00,
2013-05-29 23:19:00,79.2,77.6,29.81,East,100,12.1,21.1,95,0.00,,,0.00,WeatherDisplay:10.37,2013-05-30 04:19:00,
2013-05-29 23:24:00,79.2,77.6,29.81,East,95,10.9,23.0,95,0.00,,,0.00,WeatherDisplay:10.37,2013-05-30 04:24:00,
2013-05-29 23:29:00,79.2,77.3,29.81,SE,128,15.4,26.8,94,0.00,,,0.00,WeatherDisplay:10.37,2013-05-30 04:29:00,
2013-05-29 23:34:00,79.2,77.3,29.81,ESE,110,12.7,24.2,94,0.00,CLR,,0.00,WeatherDisplay:10.37,2013-05-30 04:34:00,
2013-05-29 23:39:00,79.1,77.2,29.81,SE,133,10.9,24.2,94,0.00,CLR,,0.00,WeatherDisplay:10.37,2013-05-30 04:39:00,
2013-05-29 23:44:00,79.2,77.6,29.81,ESE,112,10.5,18.8,95,0.00,CLR,,0.00,WeatherDisplay:10.37,2013-05-30 04:44:00,
2013-05-29 23:49:00,79.2,77.6,29.81,SSE,151,13.7,16.1,95,0.00,CLR,,0.00,WeatherDisplay:10.37,2013-05-30 04:49:00,
2013-05-29 23:54:00,79.2,77.6,29.81,ESE,113,10.3,15.0,95,0.00,CLR,,0.00,WeatherDisplay:10.37,2013-05-30 04:54:00,
2013-05-29 23:59:00,79.1,77.5,29.81,SE,127,11.0,19.6,95,0.00,CLR,,0.00,WeatherDisplay:10.37,2013-05-30 04:59:00,